Time,TemperatureF,DewpointF,PressureIn,WindDirection,WindDirectionDegrees,WindSpeedMPH,WindSpeedGustMPH,Humidity,HourlyPrecipIn,Conditions,Clouds,dailyrainin,SoftwareType,DateUTC
2013-02-01 00:03:00,29.0,20.0,30.27,West,281,9.0,18.0,69,0.00,,,0.00,,2013-02-01 05:03:00,
2013-02-01 00:12:00,29.0,20.0,30.27,West,281,9.0,18.0,69,0.00,,,0.00,,2013-02-01 05:12:00,
2013-02-01 00:22:00,30.0,21.0,30.24,WNW,293,19.0,27.0,68,0.00,,,0.00,,2013-02-01 05:22:00,
2013-02-01 00:32:00,30.0,21.0,30.24,WNW,287,15.0,25.0,68,0.00,,,0.00,,2013-02-01 05:32:00,
2013-02-01 00:42:00,30.0,21.0,30.24,WNW,287,15.0,25.0,68,0.00,,,0.00,,2013-02-01 05:42:00,
2013-02-01 00:52:00,30.0,21.0,30.24,WNW,287,15.0,25.0,68,0.00,,,0.00,,2013-02-01 05:52:00,
2013-02-01 01:02:00,31.0,21.0,30.24,SSW,201,24.0,44.0,65,0.00,,,0.00,,2013-02-01 06:02:00,
2013-02-01 01:12:00,31.0,21.0,30.24,SSW,201,24.0,44.0,65,0.00,,,0.00,,2013-02-01 06:12:00,
2013-02-01 01:22:00,32.0,22.0,30.23,SW,236,22.0,41.0,65,0.00,,,0.00,,2013-02-01 06:22:00,
2013-02-01 01:32:00,32.0,21.0,30.22,NW,309,22.0,45.0,64,0.00,,,0.00,,2013-02-01 06:32:00,
2013-02-01 01:42:00,32.0,21.0,30.22,NW,309,22.0,45.0,64,0.00,,,0.00,,2013-02-01 06:42:00,
2013-02-01 01:52:00,32.0,22.0,30.21,West,274,35.0,56.0,65,0.00,,,0.00,,2013-02-01 06:52:00,
2013-02-01 02:02:00,32.0,22.0,30.21,WNW,297,28.0,55.0,65,0.00,,,0.00,,2013-02-01 07:02:00,
2013-02-01 02:12:00,32.0,22.0,30.21,WNW,297,28.0,55.0,65,0.00,,,0.00,,2013-02-01 07:12:00,
2013-02-01 02:22:00,33.0,23.0,30.22,SW,235,21.0,35.0,66,0.00,,,0.00,,2013-02-01 07:22:00,
2013-02-01 02:32:00,33.0,23.0,30.21,WSW,240,17.0,41.0,67,0.00,,,0.00,,2013-02-01 07:32:00,
2013-02-01 02:42:00,33.0,23.0,30.21,WSW,240,17.0,41.0,67,0.00,,,0.00,,2013-02-01 07:42:00,
2013-02-01 02:52:00,33.0,24.0,30.20,North,355,16.0,39.0,69,0.00,,,0.00,,2013-02-01 07:52:00,
2013-02-01 03:01:00,33.0,24.0,30.20,South,190,18.0,32.0,69,0.00,,,0.00,,2013-02-01 08:01:00,
2013-02-01 03:11:00,33.0,24.0,30.20,South,190,18.0,32.0,69,0.00,,,0.00,,2013-02-01 08:11:00,
2013-02-01 03:21:00,33.0,24.0,30.18,SW,233,22.0,38.0,70,0.00,,,0.00,,2013-02-01 08:21:00,
2013-02-01 03:32:00,32.0,24.0,30.19,SSW,205,17.0,39.0,71,0.00,,,0.00,,2013-02-01 08:32:00,
2013-02-01 03:42:00,32.0,24.0,30.19,SSW,205,17.0,39.0,71,0.00,,,0.00,,2013-02-01 08:42:00,
2013-02-01 03:52:00,32.0,24.0,30.19,SW,228,16.0,32.0,73,0.00,,,0.00,,2013-02-01 08:52:00,
2013-02-01 04:02:00,32.0,25.0,30.17,West,259,14.0,29.0,76,0.00,,,0.00,,2013-02-01 09:02:00,
2013-02-01 04:11:00,32.0,25.0,30.17,West,259,14.0,29.0,76,0.00,,,0.00,,2013-02-01 09:11:00,
2013-02-01 04:21:00,31.0,25.0,30.18,WSW,250,12.0,27.0,77,0.00,,,0.00,,2013-02-01 09:21:00,
2013-02-01 04:32:00,31.0,25.0,30.17,WNW,294,18.0,28.0,77,0.00,,,0.00,,2013-02-01 09:32:00,
2013-02-01 04:42:00,31.0,25.0,30.17,WNW,294,18.0,28.0,77,0.00,,,0.00,,2013-02-01 09:42:00,
2013-02-01 04:52:00,30.0,25.0,30.18,WSW,238,20.0,29.0,83,0.00,,,0.00,,2013-02-01 09:52:00,
2013-02-01 05:01:00,29.0,26.0,30.19,West,262,8.0,24.0,90,0.00,,,0.00,,2013-02-01 10:01:00,
2013-02-01 05:11:00,29.0,26.0,30.19,West,262,8.0,24.0,90,0.00,,,0.00,,2013-02-01 10:11:00,
2013-02-01 05:21:00,29.0,26.0,30.19,West,262,8.0,24.0,90,0.00,,,0.00,,2013-02-01 10:21:00,
2013-02-01 05:32:00,28.0,25.0,30.18,West,277,23.0,41.0,87,0.00,,,0.00,,2013-02-01 10:32:00,
2013-02-01 05:42:00,28.0,25.0,30.18,West,277,23.0,41.0,87,0.00,,,0.00,,2013-02-01 10:42:00,
2013-02-01 05:53:00,27.0,24.0,30.20,WNW,288,9.0,35.0,90,0.00,,,0.00,,2013-02-01 10:53:00,
2013-02-01 06:02:00,26.0,22.0,30.22,WNW,302,11.0,25.0,85,0.00,,,0.00,,2013-02-01 11:02:00,
2013-02-01 06:11:00,26.0,22.0,30.22,WNW,302,11.0,25.0,85,0.00,,,0.00,,2013-02-01 11:11:00,
2013-02-01 06:22:00,25.0,19.0,30.22,WNW,287,13.0,32.0,79,0.00,,,0.00,,2013-02-01 11:22:00,
2013-02-01 06:32:00,23.0,17.0,30.24,WNW,290,13.0,27.0,76,0.00,,,0.00,,2013-02-01 11:32:00,
2013-02-01 06:42:00,23.0,17.0,30.24,WNW,290,13.0,27.0,76,0.00,,,0.00,,2013-02-01 11:42:00,
2013-02-01 06:53:00,23.0,17.0,30.24,WNW,290,13.0,27.0,76,0.00,,,0.00,,2013-02-01 11:53:00,
2013-02-01 07:03:00,20.0,8.0,30.26,NW,307,11.0,31.0,59,0.00,,,0.00,,2013-02-01 12:03:00,
2013-02-01 07:12:00,20.0,8.0,30.26,NW,307,11.0,31.0,59,0.00,,,0.00,,2013-02-01 12:12:00,
2013-02-01 07:22:00,19.0,10.0,30.25,West,275,15.0,29.0,66,0.00,,,0.00,,2013-02-01 12:22:00,
2013-02-01 07:32:00,19.0,10.0,30.25,West,275,15.0,29.0,66,0.00,,,0.00,,2013-02-01 12:32:00,
2013-02-01 07:42:00,19.0,10.0,30.25,West,275,15.0,29.0,66,0.00,,,0.00,,2013-02-01 12:42:00,
2013-02-01 07:52:00,18.0,9.0,30.26,NW,309,11.0,30.0,66,0.00,,,0.00,,2013-02-01 12:52:00,
2013-02-01 08:02:00,18.0,6.0,30.27,NW,326,15.0,26.0,58,0.00,,,0.00,,2013-02-01 13:02:00,
2013-02-01 08:12:00,18.0,6.0,30.27,NW,326,15.0,26.0,58,0.00,,,0.00,,2013-02-01 13:12:00,
2013-02-01 08:22:00,18.0,6.0,30.27,North,359,12.0,30.0,59,0.00,,,0.00,,2013-02-01 13:22:00,
2013-02-01 08:33:00,17.0,6.0,30.29,WNW,288,14.0,30.0,62,0.00,,,0.00,,2013-02-01 13:33:00,
2013-02-01 08:42:00,17.0,6.0,30.29,WNW,288,14.0,30.0,62,0.00,,,0.00,,2013-02-01 13:42:00,
2013-02-01 08:53:00,17.0,6.0,30.30,North,5,10.0,27.0,61,0.00,,,0.00,,2013-02-01 13:53:00,
2013-02-01 09:03:00,17.0,5.0,30.31,WNW,297,8.0,20.0,58,0.00,,,0.00,,2013-02-01 14:03:00,
2013-02-01 09:12:00,17.0,5.0,30.31,WNW,297,8.0,20.0,58,0.00,,,0.00,,2013-02-01 14:12:00,
2013-02-01 09:22:00,17.0,5.0,30.32,West,280,10.0,27.0,58,0.00,,,0.00,,2013-02-01 14:22:00,
2013-02-01 09:32:00,17.0,4.0,30.33,NW,305,10.0,28.0,57,0.00,,,0.00,,2013-02-01 14:32:00,
2013-02-01 09:42:00,17.0,4.0,30.33,NW,305,10.0,28.0,57,0.00,,,0.00,,2013-02-01 14:42:00,
2013-02-01 09:52:00,17.0,4.0,30.34,NW,321,7.0,18.0,56,0.00,,,0.00,,2013-02-01 14:52:00,
2013-02-01 10:03:00,18.0,4.0,30.35,West,274,8.0,19.0,54,0.00,,,0.00,,2013-02-01 15:03:00,
2013-02-01 10:12:00,18.0,5.0,30.36,NW,325,6.0,16.0,57,0.00,,,0.00,,2013-02-01 15:12:00,
2013-02-01 10:22:00,18.0,5.0,30.36,NW,325,6.0,16.0,57,0.00,,,0.00,,2013-02-01 15:22:00,
2013-02-01 10:33:00,19.0,5.0,30.37,WNW,302,11.0,21.0,54,0.00,,,0.00,,2013-02-01 15:33:00,
2013-02-01 10:42:00,19.0,5.0,30.37,WNW,302,11.0,21.0,54,0.00,,,0.00,,2013-02-01 15:42:00,
2013-02-01 10:52:00,19.0,4.0,30.38,North,6,9.0,20.0,52,0.00,,,0.00,,2013-02-01 15:52:00,
2013-02-01 11:03:00,20.0,6.0,30.38,NW,322,11.0,18.0,53,0.00,,,0.00,,2013-02-01 16:03:00,
2013-02-01 11:12:00,20.0,5.0,30.38,NNE,24,9.0,19.0,52,0.00,,,0.00,,2013-02-01 16:12:00,
2013-02-01 11:22:00,20.0,5.0,30.38,NNE,24,9.0,19.0,52,0.00,,,0.00,,2013-02-01 16:22:00,
2013-02-01 11:33:00,20.0,4.0,30.40,NNW,342,11.0,19.0,50,0.00,,,0.00,,2013-02-01 16:33:00,
2013-02-01 11:43:00,21.0,4.0,30.41,NW,307,9.0,18.0,48,0.00,,,0.00,,2013-02-01 16:43:00,
2013-02-01 11:52:00,21.0,4.0,30.41,NW,307,9.0,18.0,48,0.00,,,0.00,,2013-02-01 16:52:00,
2013-02-01 12:03:00,22.0,4.0,30.41,NNW,330,6.0,14.0,46,0.00,,,0.00,,2013-02-01 17:03:00,
2013-02-01 12:12:00,22.0,4.0,30.41,NNW,330,6.0,14.0,46,0.00,,,0.00,,2013-02-01 17:12:00,
2013-02-01 12:22:00,22.0,4.0,30.41,WNW,302,9.0,14.0,45,0.00,,,0.00,,2013-02-01 17:22:00,
2013-02-01 12:32:00,23.0,5.0,30.42,North,360,5.0,15.0,46,0.00,,,0.00,,2013-02-01 17:32:00,
2013-02-01 12:42:00,23.0,5.0,30.42,North,360,5.0,15.0,46,0.00,,,0.00,,2013-02-01 17:42:00,
2013-02-01 12:52:00,23.0,5.0,30.42,NNE,13,5.0,11.0,46,0.00,,,0.00,,2013-02-01 17:52:00,
2013-02-01 13:03:00,24.0,6.0,30.41,NNW,348,4.0,12.0,45,0.00,,,0.00,,2013-02-01 18:03:00,
2013-02-01 13:12:00,24.0,6.0,30.41,NNW,348,4.0,12.0,45,0.00,,,0.00,,2013-02-01 18:12:00,
2013-02-01 13:23:00,24.0,5.0,30.42,NNW,342,7.0,14.0,44,0.00,,,0.00,,2013-02-01 18:23:00,
2013-02-01 13:32:00,26.0,6.0,30.42,NNW,333,2.0,9.0,42,0.00,,,0.00,,2013-02-01 18:32:00,
2013-02-01 13:42:00,26.0,6.0,30.42,NNW,333,2.0,9.0,42,0.00,,,0.00,,2013-02-01 18:42:00,
2013-02-01 13:52:00,27.0,4.0,30.42,NW,307,8.0,17.0,37,0.00,,,0.00,,2013-02-01 18:52:00,
2013-02-01 14:03:00,27.0,4.0,30.42,NW,323,6.0,13.0,37,0.00,,,0.00,,2013-02-01 19:03:00,
2013-02-01 14:12:00,27.0,4.0,30.42,NW,323,6.0,13.0,37,0.00,,,0.00,,2013-02-01 19:12:00,
2013-02-01 14:22:00,28.0,5.0,30.42,WNW,296,6.0,13.0,37,0.00,,,0.00,,2013-02-01 19:22:00,
2013-02-01 14:32:00,28.0,6.0,30.42,NW,316,4.0,11.0,38,0.00,,,0.00,,2013-02-01 19:32:00,
2013-02-01 14:42:00,28.0,6.0,30.42,NW,316,4.0,11.0,38,0.00,,,0.00,,2013-02-01 19:42:00,
2013-02-01 14:51:00,28.0,5.0,30.42,WSW,257,7.0,14.0,37,0.00,,,0.00,,2013-02-01 19:51:00,
2013-02-01 15:02:00,29.0,5.0,30.42,NW,318,5.0,14.0,35,0.00,,,0.00,,2013-02-01 20:02:00,
2013-02-01 15:11:00,29.0,5.0,30.42,NW,318,5.0,14.0,35,0.00,,,0.00,,2013-02-01 20:11:00,
2013-02-01 15:22:00,29.0,5.0,30.43,North,8,5.0,16.0,36,0.00,,,0.00,,2013-02-01 20:22:00,
2013-02-01 15:32:00,28.0,5.0,30.43,WSW,255,3.0,13.0,37,0.00,,,0.00,,2013-02-01 20:32:00,
2013-02-01 15:42:00,28.0,5.0,30.43,WSW,255,3.0,13.0,37,0.00,,,0.00,,2013-02-01 20:42:00,
2013-02-01 15:52:00,29.0,5.0,30.43,ENE,75,4.0,9.0,36,0.00,,,0.00,,2013-02-01 20:52:00,
2013-02-01 16:02:00,29.0,5.0,30.43,ENE,75,4.0,9.0,36,0.00,,,0.00,,2013-02-01 21:02:00,
2013-02-01 16:12:00,29.0,5.0,30.43,ENE,75,4.0,9.0,36,0.00,,,0.00,,2013-02-01 21:12:00,
2013-02-01 16:22:00,29.0,4.0,30.43,NW,316,4.0,10.0,33,0.00,,,0.00,,2013-02-01 21:22:00,
2013-02-01 16:32:00,30.0,6.0,30.44,SW,233,5.0,14.0,36,0.00,,,0.00,,2013-02-01 21:32:00,
2013-02-01 16:42:00,30.0,6.0,30.44,SW,233,5.0,14.0,36,0.00,,,0.00,,2013-02-01 21:42:00,
2013-02-01 16:52:00,30.0,6.0,30.44,West,276,3.0,11.0,35,0.00,,,0.00,,2013-02-01 21:52:00,
2013-02-01 17:02:00,30.0,4.0,30.45,West,273,4.0,10.0,33,0.00,,,0.00,,2013-02-01 22:02:00,
2013-02-01 17:11:00,30.0,4.0,30.45,West,273,4.0,10.0,33,0.00,,,0.00,,2013-02-01 22:11:00,
2013-02-01 17:22:00,29.0,4.0,30.45,WSW,248,3.0,11.0,33,0.00,,,0.00,,2013-02-01 22:22:00,
2013-02-01 17:32:00,28.0,2.0,30.46,WSW,249,6.0,10.0,32,0.00,,,0.00,,2013-02-01 22:32:00,
2013-02-01 17:42:00,28.0,2.0,30.46,WSW,249,6.0,10.0,32,0.00,,,0.00,,2013-02-01 22:42:00,
2013-02-01 17:52:00,28.0,3.0,30.46,WNW,300,3.0,7.0,33,0.00,,,0.00,,2013-02-01 22:52:00,
2013-02-01 18:02:00,28.0,3.0,30.46,WNW,300,3.0,7.0,33,0.00,,,0.00,,2013-02-01 23:02:00,
2013-02-01 18:11:00,28.0,3.0,30.46,WNW,300,3.0,7.0,33,0.00,,,0.00,,2013-02-01 23:11:00,
2013-02-01 18:22:00,26.0,1.0,30.47,WNW,294,4.0,8.0,33,0.00,,,0.00,,2013-02-01 23:22:00,
2013-02-01 18:32:00,24.0,0.0,30.47,WNW,300,4.0,9.0,35,0.00,,,0.00,,2013-02-01 23:32:00,
2013-02-01 18:42:00,24.0,0.0,30.47,WNW,300,4.0,9.0,35,0.00,,,0.00,,2013-02-01 23:42:00,
2013-02-01 18:52:00,22.0,0.0,30.48,NNW,335,0.0,6.0,37,0.00,,,0.00,,2013-02-01 23:52:00,
2013-02-01 19:02:00,22.0,-1.0,30.48,NW,323,3.0,7.0,36,0.00,,,0.00,,2013-02-02 00:02:00,
2013-02-01 19:11:00,22.0,-1.0,30.48,NW,323,3.0,7.0,36,0.00,,,0.00,,2013-02-02 00:11:00,
2013-02-01 19:22:00,21.0,-1.0,30.48,North,358,2.0,5.0,37,0.00,,,0.00,,2013-02-02 00:22:00,
2013-02-01 19:32:00,21.0,1.0,30.49,West,266,1.0,3.0,41,0.00,,,0.00,,2013-02-02 00:32:00,
2013-02-01 19:42:00,21.0,1.0,30.49,West,266,1.0,3.0,41,0.00,,,0.00,,2013-02-02 00:42:00,
2013-02-01 19:52:00,21.0,1.0,30.50,WNW,288,2.0,4.0,41,0.00,,,0.00,,2013-02-02 00:52:00,
2013-02-01 20:03:00,20.0,1.0,30.50,NW,314,1.0,4.0,42,0.00,,,0.00,,2013-02-02 01:03:00,
2013-02-01 20:11:00,20.0,1.0,30.50,NW,314,1.0,4.0,42,0.00,,,0.00,,2013-02-02 01:11:00,
2013-02-01 20:21:00,20.0,1.0,30.50,NW,316,0.0,4.0,42,0.00,,,0.00,,2013-02-02 01:21:00,
2013-02-01 20:32:00,19.0,-1.0,30.51,NNE,25,2.0,7.0,41,0.00,,,0.00,,2013-02-02 01:32:00,
2013-02-01 20:42:00,19.0,-1.0,30.51,NNE,25,2.0,7.0,41,0.00,,,0.00,,2013-02-02 01:42:00,
2013-02-01 20:52:00,19.0,-1.0,30.51,NW,316,2.0,5.0,41,0.00,,,0.00,,2013-02-02 01:52:00,
2013-02-01 21:01:00,19.0,1.0,30.51,North,11,2.0,6.0,45,0.00,,,0.00,,2013-02-02 02:01:00,
2013-02-01 21:11:00,19.0,1.0,30.51,North,11,2.0,6.0,45,0.00,,,0.00,,2013-02-02 02:11:00,
2013-02-01 21:22:00,19.0,1.0,30.51,NNE,22,3.0,6.0,44,0.00,,,0.00,,2013-02-02 02:22:00,
2013-02-01 21:32:00,18.0,1.0,30.51,NE,39,5.0,7.0,46,0.00,,,0.00,,2013-02-02 02:32:00,
2013-02-01 21:42:00,18.0,1.0,30.51,NE,39,5.0,7.0,46,0.00,,,0.00,,2013-02-02 02:42:00,
2013-02-01 21:52:00,18.0,3.0,30.51,NE,37,4.0,7.0,50,0.00,,,0.00,,2013-02-02 02:52:00,
2013-02-01 22:02:00,18.0,3.0,30.52,NNE,26,5.0,8.0,51,0.00,,,0.00,,2013-02-02 03:02:00,
2013-02-01 22:11:00,18.0,3.0,30.52,NNE,26,5.0,8.0,51,0.00,,,0.00,,2013-02-02 03:11:00,
2013-02-01 22:22:00,18.0,3.0,30.52,NE,37,6.0,9.0,51,0.00,,,0.00,,2013-02-02 03:22:00,
2013-02-01 22:32:00,18.0,2.0,30.52,NNE,33,6.0,9.0,49,0.00,,,0.00,,2013-02-02 03:32:00,
2013-02-01 22:42:00,18.0,0.0,30.52,NE,37,6.0,9.0,45,0.00,,,0.00,,2013-02-02 03:42:00,
2013-02-01 22:52:00,18.0,0.0,30.52,NE,37,6.0,9.0,45,0.00,,,0.00,,2013-02-02 03:52:00,
2013-02-01 23:02:00,18.0,2.0,30.52,NE,40,3.0,5.0,49,0.00,,,0.00,,2013-02-02 04:02:00,
2013-02-01 23:11:00,18.0,2.0,30.52,NE,40,3.0,5.0,49,0.00,,,0.00,,2013-02-02 04:11:00,
2013-02-01 23:22:00,17.0,1.0,30.53,NE,46,4.0,5.0,49,0.00,,,0.00,,2013-02-02 04:22:00,
2013-02-01 23:32:00,17.0,1.0,30.53,NE,46,4.0,5.0,49,0.00,,,0.00,,2013-02-02 04:32:00,
2013-02-01 23:42:00,17.0,1.0,30.53,NE,46,4.0,5.0,49,0.00,,,0.00,,2013-02-02 04:42:00,
2013-02-01 23:52:00,18.0,-1.0,30.53,NNE,26,4.0,8.0,42,0.00,,,0.00,,2013-02-02 04:52:00,